Location: LDNL
(36.4545°S, 141.6685°E)
Time: 12:05:10
(UTC+10:00)

Tiros 1 despin weight - Pass Details

Date: 08 August 2022
Orbit: 590 x 639 km, 48.2° (Epoch: 23 September)

Event Time Altitude Azimuth Distance (km) Brightness Sun altitude
Rises 00:07:12 0° 355° (N) 2,882 - -68.7°
Reaches altitude 10° 00:10:31 10° 20° (NNE) 1,997 - -68.9°
Maximum altitude 00:12:52 14° 51° (NE) 1,766 - -69.0°
Drops below altitude 10° 00:15:14 10° 82° (E) 2,023 - -69.2°
Sets 00:18:37 0° 107° (ESE) 2,949 - -69.4°
